Find Starlink 31782

NORAD ID: 59606 Int'l Des: 2024-080 Owner: SPXS Country: US Constellation: starlink operational
LEOCIRCULAR

Current View

Loading 3D Globe...

About Starlink 31782

Starlink 31782 (NORAD 59606) is a starlink constellation satellite (v2 mini) launched Apr 28, 2024 by SPXS of US. It operates in LEO, CIRCULAR orbit with a mass of 730.00 kg.

About Starlink 31782

Description loading...

Upcoming Passes

Passes for default location (London). Set your location on the main map for personalized predictions.

Altitude History

Loading altitude history...

Two-Line Element Set

1 59606U 24080F 26173.67146274 .00000150 00000-0 14990-4 0 9999
2 59606 43.0012 168.8806 0001284 273.6987 86.3717 15.27577468120548
Epoch: Jun 22, 2026 • Age: 15 hours

Current Status

Altitude 482.5 km
Velocity 7.63 km/s
Sub-Earth Point 12.58°N, 43.96°W
Launch Date Apr 28, 2024
Age 2.1 years
Type internet

Technical Details

Classification Payload
Mass 730.00 kg
Dry Mass 700.00 kg
Total Mass 730.00 kg
Length 0.30 m
Diameter 4.10 m
Span 29.00 m
Shape Box + pan
Manufacturer SPXS
Bus Type Starlink V2M
Phase Status In Orbit
Owner/State SPXS/US

Most Searched